Location: Carrières
(48.9495°N, 2.0407°E)
Time: 17:07:39
(UTC+00:00)

Cosmos 1606 Rocket - Pass Details

Date: 23 June 2024
Orbit: 599 x 628 km, 82.5° (Epoch: 15 July)

Event Time Altitude Azimuth Distance (km) Brightness Sun altitude
Rises 23:44:26 0° 4° (N) 2,917 8.7 -17.6°
Reaches altitude 10° 23:47:40 10° 29° (NNE) 1,999 7.1 -17.6°
Maximum altitude 23:50:07 14° 63° (ENE) 1,711 6.1 -17.6°
Drops below altitude 10° 23:52:33 10° 97° (E) 1,981 6.1 -17.6°
Enters shadow 23:54:08 - 112° (ESE) 2,385 6.3 -17.6°
